Home   Weather   Hayward   Past weeks

Flag for USA Past Weather in Hayward, California, USA — Yesterday and Last 2 Weeks

Now
59 °F

Low clouds.


Feels Like: 59 °F
Forecast: 57 / 71 °F
Wind: 5 mph from Northwest

Location: Hayward Air Terminal

Current Time: Sep 29, 2016 at 1:37:50 AM

Latest Report: Sep 29, 2016 at 12:54 AM


Visibility: 10 mi

Pressure: 30.01 "Hg

Humidity: 78%

Dew Point: 52 °F

Location of HaywardLocation

Past Weather in Hayward — Graph

°F

Hayward Temperature Yesterday

Maximum temperature yesterday: 75 °F (at 12:54 PM)
Minimum temperature yesterday: 57 °F (at 6:54 AM)
Average temperature yesterday: 62 °F

High & Low Weather Summary for the Past Weeks

 TemperatureHumidityPressure
High97 °F (Sep 26, 3:54 PM)87% (Sep 17, 5:54 AM)30.18 "Hg (Sep 17, 5:54 AM)
Low53 °F (Sep 23, 4:54 AM)11% (Sep 26, 4:54 PM)29.84 "Hg (Sep 27, 5:54 PM)
Average67 °F57%30.01 "Hg
* Reported Sep 14 12:54 AM — Sep 29 12:02 AM, Hayward, Weather by CustomWeather, © 2016

Note: Actual official high and low records may vary slightly from our data, if they occured in-between our weather recording intervals... More about our weather records

Advertising

Hayward Weather History for the Previous 24 Hours

Scroll right to see more
 ConditionsComfort  
Time TempWeatherWind HumidityBarometerVisibility
12:02 AM
Thu, Sep 29
58 °FLow clouds.3 mph78%29.98 "Hg10 mi
11:54 PM
Wed, Sep 28
58 °FCool.3 mph78%30.01 "Hg10 mi
10:54 PM58 °FLow clouds.5 mph78%30.00 "Hg10 mi
9:54 PM58 °FLow clouds.8 mph78%29.99 "Hg10 mi
8:54 PM57 °FCool.9 mph81%29.98 "Hg10 mi
7:54 PM58 °FLow clouds.13 mph78%29.96 "Hg10 mi
7:02 PM58 °FPassing clouds.12 mph78%29.91 "Hg10 mi
6:54 PM58 °FClear.13 mph78%29.93 "Hg10 mi
5:54 PM62 °FSunny.14 mph67%29.92 "Hg10 mi
4:54 PM66 °FSunny.14 mph59%29.91 "Hg10 mi
3:54 PM69 °FSunny.13 mph53%29.90 "Hg10 mi
2:54 PM71 °FSunny.15 mph51%29.90 "Hg10 mi
1:54 PM73 °FSunny.14 mph50%29.91 "Hg10 mi
12:54 PM75 °FSunny.10 mph48%29.92 "Hg10 mi
11:54 AM72 °FMild.10 mph52%29.93 "Hg10 mi
10:54 AM70 °FSunny.8 mph57%29.94 "Hg10 mi
9:54 AM65 °FSunny.6 mph63%29.93 "Hg10 mi
8:54 AM62 °FSunny.5 mph70%29.93 "Hg10 mi
7:54 AM58 °FSunny.5 mph78%29.92 "Hg10 mi
6:54 AM57 °FClear.6 mph78%29.91 "Hg10 mi
5:54 AM58 °FClear.No wind75%29.89 "Hg10 mi
4:54 AM58 °FClear.3 mph78%29.88 "Hg10 mi
3:54 AM58 °FClear.5 mph78%29.88 "Hg10 mi
2:54 AM59 °FCool.3 mph75%29.88 "Hg10 mi
1:54 AM59 °FClear.No wind75%29.89 "Hg10 mi
Weather by CustomWeather, © 2016

See weather overviewHow to use our weather pages